Date_and_time,latitude,longitude,wind_speed,RelWindDirFrom,WindDirFrom,air_pressure,air_temperature,relative_humidity,Temp,platform_speed_wrt_ground,air_pressure_at_mean_sea_level,platform_orientation
2019-08-19 23:50,50.630455,-96.980785,3.9,7.5,277,983.14,22.6,28,21.36,0.0,1008.72,252.3
2019-08-20 00:00,50.630455,-96.9807933333333,4.5,8.0,275,983.12,22.8,27,21.27,0.0,1008.67,283.7
2019-08-20 00:10,50.6304516666667,-96.98079,3.7,5.6,272,983.19,22.6,29,21.18,0.0,1008.77,283.7
2019-08-20 00:20,50.6304533333333,-96.98078,3.3,5.4,264,983.28,22.8,28,21.14,0.0,1008.87,283.7
2019-08-20 00:30,50.6304533333333,-96.9807833333333,4.1,7.1,282,983.30,22.9,29,21.13,0.0,1008.89,283.7
2019-08-20 00:40,50.6304533333333,-96.9807816666667,3.3,6.1,288,983.31,22.5,30,21.14,0.0,1008.89,283.7
2019-08-20 00:50,50.6304533333333,-96.98078,3.5,5.0,311,983.38,22.2,31,21.26,0.0,1008.98,283.7
2019-08-20 01:00,50.6304516666667,-96.98078,2.9,4.2,305,983.49,21.9,32,21.32,0.0,1009.11,0.0
2019-08-20 01:10,50.6304516666667,-96.98078,3.0,4.0,315,983.55,21.8,33,21.31,0.0,1009.19,0.0
2019-08-20 01:20,50.6304533333333,-96.98078,2.7,4.2,323,983.62,21.7,35,21.22,0.0,1009.25,0.0
2019-08-20 01:30,50.6304533333333,-96.9807783333333,2.2,3.0,331,983.71,21.4,38,21.15,0.0,1009.35,0.0
2019-08-20 01:40,50.6304516666667,-96.9807783333333,2.5,3.7,329,983.77,21.2,38,21.11,0.0,1009.43,0.0
2019-08-20 01:50,50.6304516666667,-96.9807766666667,2.7,3.7,325,983.76,20.9,38,21.11,0.0,1009.43,0.0
2019-08-20 02:00,50.6304516666667,-96.9807766666667,2.8,3.9,311,983.80,20.9,35,21.10,0.0,1009.48,90.0
2019-08-20 02:10,50.6304416666667,-96.9807683333333,3.1,4.3,311,983.90,21.0,34,21.05,0.0,1009.57,90.0
2019-08-20 02:20,50.6304166666667,-96.9807833333333,3.5,4.6,321,983.98,20.7,36,21.04,0.0,1009.66,90.0
2019-08-20 02:30,50.630455,-96.98077,3.0,4.0,332,984.00,20.5,39,21.02,0.0,1009.71,90.0
2019-08-20 02:40,50.6304516666667,-96.980765,2.7,3.5,341,983.97,20.2,41,20.99,0.0,1009.70,90.0
2019-08-20 02:50,50.6304533333333,-96.9807666666667,4.2,6.3,348,983.95,20.2,45,20.96,0.0,1009.69,90.0
2019-08-20 03:00,50.630455,-96.9807666666667,5.4,6.6,347,983.87,20.4,41,20.93,0.0,1009.61,90.0
2019-08-20 03:10,50.630455,-96.9807666666667,4.1,6.0,344,983.92,20.2,43,20.93,0.0,1009.67,90.0
2019-08-20 03:20,50.6304766666667,-96.9807633333333,5.0,6.2,350,983.94,20.1,49,21.01,0.0,1009.71,90.0
2019-08-20 03:30,50.6304566666667,-96.9807616666667,5.4,6.5,357,983.85,20.1,55,21.00,0.0,1009.63,90.0
2019-08-20 03:40,50.6304616666667,-96.9807666666667,6.2,8.0,353,983.77,20.1,58,20.97,0.0,1009.56,90.0
2019-08-20 03:50,50.63046,-96.98077,7.6,9.2,348,983.71,19.9,58,20.95,0.0,1009.51,90.0
2019-08-20 04:00,50.6304583333333,-96.98077,8.8,12.0,354,983.96,20.1,52,20.97,0.0,1009.75,68.5
2019-08-20 04:10,50.6304566666667,-96.98077,14.9,20.3,359,984.16,19.8,62,20.94,0.0,1009.98,68.5
2019-08-20 04:20,50.6304566666667,-96.9807716666667,17.3,20.3,6,984.49,18.7,72,20.81,0.0,1010.38,68.5
2019-08-20 04:30,50.630455,-96.9807716666667,17.0,19.7,7,984.59,18.4,72,20.82,0.0,1010.51,68.5
2019-08-20 04:40,50.6304466666667,-96.9807833333333,14.8,18.0,1,984.98,18.3,70,20.88,0.0,1010.91,68.5
2019-08-20 04:50,50.63045,-96.9807783333333,14.5,17.4,7,985.07,18.3,65,20.88,0.0,1011.00,68.5
2019-08-20 05:00,50.6304866666667,-96.9808133333333,14.0,16.6,6,985.17,18.4,63,20.87,0.0,1011.10,318.8
2019-08-20 05:10,50.6304616666667,-96.9807816666667,14.6,17.2,4,985.10,18.3,64,20.88,0.0,1011.04,318.8
2019-08-20 05:20,50.6304566666667,-96.9807833333333,12.7,15.4,1,985.33,18.3,64,20.87,0.0,1011.27,318.8
2019-08-20 05:30,50.630435,-96.9807816666667,11.3,14.2,1,985.32,18.3,64,20.81,0.0,1011.27,318.8
2019-08-20 05:40,50.63045,-96.9807833333333,10.2,11.9,356,985.30,18.3,63,20.79,0.0,1011.25,318.8
2019-08-20 05:50,50.6304516666667,-96.9807833333333,11.9,15.2,5,985.07,18.4,63,20.78,0.0,1011.00,318.8
2019-08-20 06:00,50.6304516666667,-96.980785,11.7,14.8,0,985.05,18.4,62,20.76,0.0,1011.00,270.0
2019-08-20 06:10,50.6304533333333,-96.9807866666667,8.8,13.1,350,985.31,18.3,61,20.75,0.0,1011.32,270.0
2019-08-20 06:20,50.63047,-96.9808166666667,6.6,9.0,325,985.36,17.6,64,20.76,0.0,1011.42,270.0
2019-08-20 06:30,50.63045,-96.980795,7.0,9.2,339,985.23,17.0,66,20.74,0.0,1011.32,270.0
2019-08-20 06:40,50.630455,-96.9807833333333,6.1,8.1,338,985.33,17.1,66,20.73,0.0,1011.41,270.0
2019-08-20 06:50,50.6304516666667,-96.9807816666667,6.6,8.9,338,985.44,17.3,64,20.72,0.0,1011.51,270.0
2019-08-20 07:00,50.6304516666667,-96.9807816666667,7.0,12.8,340,985.48,17.3,65,20.71,0.0,1011.55,248.5
2019-08-20 07:10,50.63045,-96.9807766666667,6.6,13.2,348,985.59,17.3,66,20.69,0.0,1011.67,248.5
2019-08-20 07:20,50.63044,-96.9807466666667,6.2,9.1,338,985.72,17.4,66,20.67,0.0,1011.79,248.5
2019-08-20 07:30,50.6304533333333,-96.9807616666667,5.5,8.1,330,985.69,17.0,66,20.67,0.0,1011.78,248.5
2019-08-20 07:40,50.63048,-96.9807916666667,5.8,7.5,336,985.48,16.8,68,20.65,0.0,1011.58,248.5
2019-08-20 07:50,50.63046,-96.9807783333333,5.3,7.3,331,985.53,16.8,68,20.65,0.0,1011.63,248.5
2019-08-20 08:00,50.6304583333333,-96.9807766666667,5.7,7.3,333,985.48,16.5,69,20.65,0.0,1011.59,135.5
2019-08-20 08:10,50.6304566666667,-96.9807783333333,6.3,8.9,329,985.54,16.4,69,20.66,0.0,1011.69,135.5
2019-08-20 08:20,50.6304566666667,-96.9807766666667,5.8,7.8,316,985.78,15.9,69,20.66,0.0,1011.99,135.5
2019-08-20 08:30,50.6304566666667,-96.9807766666667,5.2,7.8,322,985.80,15.6,69,20.66,0.0,1012.01,135.5
2019-08-20 08:40,50.6304666666667,-96.98075,6.0,8.0,329,985.72,15.5,70,20.66,0.0,1011.93,135.5
2019-08-20 08:50,50.6304666666667,-96.9808166666667,6.3,9.0,321,985.86,15.2,70,20.67,0.0,1012.08,135.5
2019-08-20 09:00,50.6304516666667,-96.98078,6.6,9.3,328,985.83,15.1,70,20.67,0.0,1012.06,0.0
2019-08-20 09:10,50.630455,-96.9807816666667,6.2,9.4,323,985.97,15.1,69,20.68,0.0,1012.20,0.0
2019-08-20 09:20,50.630455,-96.9807783333333,5.9,8.2,324,985.99,15.2,69,20.66,0.0,1012.23,0.0
2019-08-20 09:30,50.6304666666667,-96.980795,6.1,8.5,319,986.05,15.1,68,20.63,0.0,1012.31,0.0
2019-08-20 09:40,50.6304583333333,-96.9807766666667,7.1,10.6,318,986.21,15.0,68,20.61,0.0,1012.48,0.0
2019-08-20 09:50,50.6304583333333,-96.980775,7.4,10.2,316,986.39,14.8,69,20.60,0.0,1012.68,0.0
2019-08-20 10:00,50.63046,-96.9807733333333,8.0,11.6,316,986.54,14.6,70,20.60,0.0,1012.86,60.8
2019-08-20 10:10,50.6304483333333,-96.9807416666667,7.5,10.0,316,986.62,14.3,71,20.59,0.0,1012.98,60.8
2019-08-20 10:20,50.6304516666667,-96.9807533333333,6.1,8.6,306,986.82,14.0,72,20.58,0.0,1013.20,60.8
2019-08-20 10:30,50.6304516666667,-96.9807633333333,6.8,9.6,305,986.82,13.7,72,20.56,0.0,1013.23,60.8
2019-08-20 10:40,50.6304516666667,-96.980765,6.3,8.8,307,986.92,13.5,74,20.55,0.0,1013.35,60.8
2019-08-20 10:50,50.6304533333333,-96.98077,6.9,8.9,305,986.93,13.2,75,20.55,0.0,1013.38,60.8
2019-08-20 11:00,50.63048,-96.9807883333333,8.2,13.1,300,987.04,12.9,76,20.55,0.0,1013.51,322.3
2019-08-20 11:10,50.6304683333333,-96.980785,8.6,11.9,302,987.09,12.8,77,20.55,0.0,1013.56,322.3
2019-08-20 11:20,50.63046,-96.9807783333333,8.6,12.8,305,987.09,12.6,78,20.53,0.0,1013.57,322.3
2019-08-20 11:30,50.6304583333333,-96.980775,8.2,11.5,308,987.30,12.6,78,20.53,0.0,1013.80,322.3
2019-08-20 11:40,50.6304583333333,-96.9807733333333,8.3,11.8,305,987.49,12.6,77,20.52,0.0,1013.99,322.3
2019-08-20 11:50,50.6304583333333,-96.9807733333333,8.7,12.8,302,987.57,12.7,77,20.52,0.0,1014.08,322.3
2019-08-20 12:00,50.6304583333333,-96.9807716666667,9.0,14.5,303,987.80,12.6,77,20.51,0.0,1014.34,60.8
2019-08-20 12:10,50.63046,-96.9807716666667,9.4,13.7,303,988.04,12.7,76,20.49,0.0,1014.59,60.8
2019-08-20 12:20,50.6304583333333,-96.9807716666667,8.3,12.3,299,988.28,12.9,76,20.48,0.0,1014.85,60.8
2019-08-20 12:30,50.6304583333333,-96.9807733333333,7.4,11.0,295,988.47,13.0,76,20.48,0.0,1015.05,60.8
2019-08-20 12:40,50.6304166666667,-96.9807416666667,6.1,10.1,292,988.70,13.0,76,20.48,0.0,1015.29,60.8
2019-08-20 12:50,50.6304516666667,-96.9807666666667,5.7,8.5,285,988.95,13.2,75,20.48,0.0,1015.56,60.8
2019-08-20 13:00,50.6304533333333,-96.9807683333333,5.7,8.7,287,989.13,13.3,75,20.46,0.0,1015.74,167.4
2019-08-20 13:10,50.6304516666667,-96.98077,5.6,9.5,289,989.24,13.5,74,20.44,0.0,1015.85,167.4
2019-08-20 13:20,50.6304516666667,-96.9807683333333,7.2,11.9,289,989.28,13.7,74,20.43,0.0,1015.89,167.4
2019-08-20 13:30,50.6304516666667,-96.98077,7.6,10.6,303,989.36,13.8,74,20.43,0.0,1015.96,167.4
2019-08-20 13:40,50.6304516666667,-96.9807716666667,6.9,11.5,290,989.54,13.9,74,20.43,0.0,1016.13,167.4
2019-08-20 13:50,50.63045,-96.9807983333333,6.9,10.5,290,989.55,14.2,73,20.42,0.0,1016.15,167.4
2019-08-20 14:00,50.6304533333333,-96.9807883333333,7.3,10.9,289,989.55,14.5,69,20.42,0.0,1016.12,170.2
2019-08-20 14:10,50.6304333333333,-96.9807866666667,7.2,10.7,298,989.57,14.9,67,20.41,0.0,1016.12,170.2
2019-08-20 14:20,50.630445,-96.980785,7.0,11.0,300,989.71,15.2,65,20.38,0.0,1016.24,170.2
2019-08-20 14:30,50.630445,-96.9807883333333,8.5,12.0,309,989.79,15.7,61,20.36,0.0,1016.30,170.2
2019-08-20 14:40,50.6304466666667,-96.980785,8.7,12.3,302,989.91,16.0,60,20.36,0.0,1016.39,170.2
2019-08-20 14:50,50.6304466666667,-96.9807833333333,9.1,12.5,306,989.93,16.2,58,20.38,0.0,1016.40,170.2
2019-08-20 15:00,50.6304466666667,-96.9807833333333,7.9,11.9,307,990.18,16.7,57,20.42,0.0,1016.63,216.6
2019-08-20 15:10,50.6304483333333,-96.9807816666667,8.2,13.8,308,990.40,16.9,55,20.43,0.0,1016.83,216.6
2019-08-20 15:20,50.6304483333333,-96.9807816666667,8.5,15.2,300,990.46,17.0,54,20.41,0.0,1016.89,216.6
2019-08-20 15:30,50.6304583333333,-96.9807766666667,9.9,16.1,301,990.50,17.2,50,20.39,0.0,1016.91,216.6
2019-08-20 15:40,50.6304483333333,-96.9807933333333,11.0,17.3,310,990.44,17.2,49,20.38,0.0,1016.84,216.6
2019-08-20 15:50,50.6304633333333,-96.9807716666667,8.9,15.4,301,990.50,17.5,49,20.41,0.0,1016.88,216.6
2019-08-20 16:00,50.6304533333333,-96.9807666666667,9.5,16.7,301,990.57,17.7,49,20.43,0.0,1016.92,0.0
2019-08-20 16:10,50.6304466666667,-96.98077,8.4,14.3,314,990.64,17.8,48,20.44,0.0,1016.97,0.0
2019-08-20 16:20,50.63045,-96.980775,9.9,16.8,306,990.53,18.0,47,20.44,0.0,1016.82,0.0
2019-08-20 16:30,50.63045,-96.980775,8.8,14.7,285,990.51,18.2,46,20.45,0.0,1016.78,0.0
2019-08-20 16:40,50.6304516666667,-96.9807816666667,8.5,15.3,300,990.57,18.4,45,20.48,0.0,1016.83,0.0
2019-08-20 16:50,50.630455,-96.9807883333333,10.1,17.0,305,990.47,18.4,45,20.49,0.0,1016.70,0.0
2019-08-20 17:00,50.630455,-96.9807866666667,9.9,17.5,312,990.47,18.4,43,20.51,0.0,1016.68,0.0
2019-08-20 17:10,50.6304533333333,-96.9807866666667,9.5,16.0,305,990.49,18.4,42,20.53,0.0,1016.71,0.0
2019-08-20 17:20,50.630455,-96.9807866666667,8.8,16.2,294,990.55,18.6,41,20.55,0.0,1016.75,0.0
2019-08-20 17:30,50.6304533333333,-96.9807833333333,8.5,15.2,284,990.57,18.8,41,20.57,0.0,1016.76,0.0
2019-08-20 17:40,50.630455,-96.980785,7.8,14.8,270,990.62,18.7,40,20.60,0.0,1016.81,0.0
2019-08-20 17:50,50.6304533333333,-96.980785,8.4,15.5,274,990.57,18.9,39,20.64,0.0,1016.73,0.0
2019-08-20 18:00,50.6304533333333,-96.980785,7.9,15.0,294,990.48,19.4,38,20.68,0.0,1016.61,38.0
2019-08-20 18:10,50.6304433333333,-96.98078,8.6,13.9,308,990.29,19.3,39,20.74,0.0,1016.42,38.0
2019-08-20 18:20,50.63045,-96.98078,7.9,14.7,284,990.32,19.5,37,20.79,0.0,1016.43,38.0
2019-08-20 18:30,50.6304566666667,-96.9807783333333,8.1,15.1,287,990.28,19.5,36,20.81,0.0,1016.38,38.0
2019-08-20 18:40,50.6304483333333,-96.980775,6.6,15.0,256,990.31,19.8,36,20.83,0.0,1016.40,38.0
2019-08-20 18:50,50.63045,-96.9807883333333,7.5,18.4,281,990.16,19.9,34,20.86,0.0,1016.24,38.0
2019-08-20 19:00,50.6304516666667,-96.9807883333333,8.4,16.0,265,990.27,20.1,34,20.89,0.0,1016.34,270.0
2019-08-20 19:10,50.6304383333333,-96.9807883333333,8.7,14.3,306,990.12,20.1,34,20.93,0.0,1016.18,270.0
2019-08-20 19:20,50.6304416666667,-96.980785,7.4,17.7,283,990.03,20.3,35,20.99,0.0,1016.07,270.0
2019-08-20 19:30,50.63044,-96.9807883333333,7.0,14.6,265,990.12,20.4,34,21.03,0.0,1016.16,270.0
2019-08-20 19:40,50.6304416666667,-96.9807916666667,9.4,17.1,286,990.05,20.5,33,21.04,0.0,1016.08,270.0
2019-08-20 19:50,50.6304483333333,-96.9807783333333,6.6,13.4,287,990.01,20.5,34,21.03,0.0,1016.01,270.0
2019-08-20 20:00,50.63045,-96.980775,9.4,15.4,262,989.89,20.7,32,21.03,0.0,1015.88,90.0
2019-08-20 20:10,50.6304316666667,-96.9807833333333,5.3,16.4,294,989.84,20.7,32,21.03,0.0,1015.83,90.0
2019-08-20 20:20,50.6304433333333,-96.9807866666667,7.1,14.6,305,989.86,20.8,31,21.01,0.0,1015.84,90.0
2019-08-20 20:30,50.6304433333333,-96.980785,8.1,16.9,285,989.80,21.2,32,21.02,0.0,1015.75,90.0
2019-08-20 20:40,50.630445,-96.9807866666667,10.1,15.0,299,989.70,21.0,33,21.04,0.0,1015.65,90.0
2019-08-20 20:50,50.6304433333333,-96.980785,10.2,16.9,284,989.79,21.0,33,21.10,0.0,1015.74,90.0
2019-08-20 21:00,50.6304466666667,-96.9807816666667,8.3,17.1,252,989.81,20.9,34,21.13,0.0,1015.75,142.0
2019-08-20 21:10,50.6304533333333,-96.98077,10.0,16.8,286,989.64,21.1,33,21.12,0.0,1015.57,142.0
2019-08-20 21:20,50.63045,-96.98077,10.6,16.5,260,989.70,21.0,32,21.12,0.0,1015.62,142.0
2019-08-20 21:30,50.630445,-96.9807933333333,9.4,14.3,258,989.73,21.0,31,21.15,0.0,1015.66,142.0
2019-08-20 21:40,50.63045,-96.9807783333333,11.1,18.3,276,989.66,21.1,31,21.18,0.0,1015.58,142.0
2019-08-20 21:50,50.63045,-96.980775,10.1,17.8,273,989.66,21.1,29,21.18,0.0,1015.57,142.0
2019-08-20 22:00,50.6304483333333,-96.9807733333333,11.5,17.9,285,989.45,21.2,28,21.19,0.0,1015.35,113.6
2019-08-20 22:10,50.63045,-96.980775,10.2,19.6,288,989.39,21.3,28,21.20,0.0,1015.28,113.6
2019-08-20 22:20,50.6304583333333,-96.9807716666667,11.6,20.4,265,989.46,21.2,28,21.21,0.0,1015.33,113.6
2019-08-20 22:30,50.6304533333333,-96.9807783333333,9.3,16.6,275,989.47,21.3,28,21.21,0.0,1015.34,113.6
2019-08-20 22:40,50.6304483333333,-96.9807866666667,11.1,18.4,278,989.37,21.3,27,21.21,0.0,1015.25,113.6
2019-08-20 22:50,50.6304483333333,-96.9807916666667,10.8,18.7,278,989.35,21.3,27,21.19,0.0,1015.24,113.6
2019-08-20 23:00,50.63045,-96.9807916666667,11.6,20.8,276,989.32,21.3,27,21.17,0.0,1015.18,270.0
2019-08-20 23:10,50.6304483333333,-96.9807883333333,14.0,21.1,296,989.16,21.2,27,21.16,0.0,1015.04,270.0
2019-08-20 23:20,50.6304466666667,-96.9807883333333,11.5,20.3,285,989.36,21.2,26,21.15,0.0,1015.25,270.0
2019-08-20 23:30,50.6304483333333,-96.9807866666667,10.4,16.5,279,989.55,21.2,27,21.15,0.0,1015.43,270.0
